Miscellaneous Local Product
Issued by NWS Hastings, NE

Home | Current Version | Previous Version | Text Only | Print | Product List | Glossary Off
Versions: 1 2 3 4 5 6 7 8 9 10 11 12 13 14 15 16 17 18 19 20 21 22 23 24 25 26 27 28 29 30 31 32 33 34 35 36 37 38 39 40 41 42 43 44 45 46 47 48 49 50

539
AXUS43 KGID 221002
MISGRI

GID CWA HOURLY WEATHER ROUNDUP
NATIONAL WEATHER SERVICE HASTINGS NE
400 AM CST THU FEB 22 2018

NOTE: "FAIR" INDICATES FEW OR NO CLOUDS BELOW 12,000 FEET WITH NO
SIGNIFICANT WEATHER AND/OR OBSTRUCTIONS TO VISIBILITY.

...SOUTH CENTRAL NEBRASKA...

CITY           SKY/WX    TMP DP  RH WIND       PRES   REMARKS
GRAND ISLAND   CLOUDY    21  17  84 NE10      30.38F WCI  10
KEARNEY        CLOUDY    20  16  84 E10       30.36F WCI   9
HASTINGS       CLOUDY    20  16  84 E7        30.38S WCI  11
ORD            FLURRIES  19  16  88 SE5       30.35F WCI  12
YORK           FLURRIES  21  21 100 NE9       30.39F WCI  11
AURORA         LGT SNOW  20  18  89 E9        30.38F WCI  10
LEXINGTON      CLOUDY    22  16  78 E8        30.32F WCI  13
HOLDREGE       CLOUDY    21  14  75 E9        30.34F WCI  11
HEBRON         LGT SNOW  23  21  91 NE8       30.39F WCI  14

...NEBRASKA PANHANDLE...

CITY           SKY/WX    TMP DP  RH WIND       PRES   REMARKS
CHADRON        CLOUDY    16   6  65 S9        30.14F WCI   4
ALLIANCE       FAIR       4   3  96 S12       30.12F WCI -12
SCOTTSBLUFF    FAIR       7   3  84 E10       30.13F WCI  -8
SIDNEY         CLOUDY    19  16  88 S12       30.11F WCI   7

...WESTERN AND NORTH CENTRAL NEBRASKA...

CITY           SKY/WX    TMP DP  RH WIND       PRES   REMARKS
VALENTINE      FAIR      15   9  76 S12       30.26F WCI   2
AINSWORTH      FAIR      16  15  94 S8        30.28F WCI   6
ONEILL         CLOUDY    19  17  93 S10       30.37F WCI   7
BROKEN BOW     CLOUDY    20  16  84 SE8       30.31F WCI  10
IMPERIAL       MOCLDY    19   8  62 SE10      30.20F WCI   7
NORTH PLATTE   CLOUDY    20  16  84 SE8       30.27F WCI  10
MCCOOK         CLOUDY    22  11  62 E12       30.28F WCI  10

...EASTERN NEBRASKA...

CITY           SKY/WX    TMP DP  RH WIND       PRES   REMARKS
NORFOLK        LGT SNOW  20  18  92 SE6       30.41F FOG     WCI  12
SO SIOUX CITY  LGT SNOW  19  17  92 E6        30.48F FOG     WCI  11
TEKAMAH        CLOUDY    21  19  92 CALM      30.49F
COLUMBUS       FLURRIES  20  17  88 NE9       30.44F WCI   9
ALBION         FLURRIES  22  18  86 SE8       30.39F WCI  12
OMAHA EPPLEY   FLURRIES  24  18  77 CALM      30.48F
OFFUTT AFB     LGT SNOW  23  19  86 NE7       30.46F VSB 7/8 WCI  15
MILLARD        LGT SNOW  24  20  85 NE3       30.46F
LINCOLN        LGT SNOW  22  19  89 NE9       30.45F FOG     WCI  12
NEBRASKA CITY  LGT SNOW  23  23 100 NE9       30.42F WCI  13
BEATRICE       LGT SNOW  24  22  93 NE8       30.41S WCI  15
FALLS CITY     MIX PCPN  24  22  91 NE7       30.42S FOG     WCI  16

...NORTHERN KANSAS...

CITY           SKY/WX    TMP DP  RH WIND       PRES   REMARKS
GOODLAND       MOCLDY    19   6  57 SE8       30.18F WCI   9
HILL CITY      CLOUDY    23  12  62 E9        30.32F WCI  13
NORTON         CLOUDY    23   7  50 E9        30.30F WCI  13
PHILLIPSBURG   CLOUDY    23  18  80 E9        30.36F WCI  13
SMITH CENTER   CLOUDY    19  18  93 E9        30.37F WCI   9
BELOIT         CLOUDY    21  19  93 CALM      30.39F
HAYS           CLOUDY    22  19  89 E8        30.33F WCI  12
RUSSELL        CLOUDY    23  21  92 NE10      30.32F WCI  12
CONCORDIA      CLOUDY    23  22  96 NE8       30.38F WCI  14
SALINA         CLOUDY    27  26  96 NE9       30.37F FOG     WCI  18
TOPEKA         FRZ RAIN  28  28 100 E9        30.39F FOG     WCI  19



USA.gov is the U.S. government's official web portal to all federal, state and local government web resources and services.